| time (UTC) | temp F | wind direction | speed MPH | gust MPH | rain 1hr in | rain 24hr in | rain mn in | humidity % | barometer mb |
| 20260507222704 | 64 | 204 | 0.0 | 2.0 | 0.00 | 0.00 | 0.00 | 59 | 1017.0 |
| 20260507221203 | 64 | 20 | 1.0 | 2.0 | 0.00 | 0.00 | 0.00 | 60 | 1017.1 |
| 20260507220704 | 64 | 199 | 0.0 | 2.0 | 0.00 | 0.00 | 0.00 | 60 | 1017.2 |
| 20260507214704 | 62 | 69 | 0.0 | 2.0 | 0.00 | 0.00 | 0.00 | 69 | 1017.4 |
| 20260507214204 | 62 | 69 | 0.0 | 2.0 | 0.00 | 0.00 | 0.00 | 67 | 1017.4 |
| 20260507213704 | 62 | 63 | 0.0 | 2.0 | 0.00 | 0.00 | 0.00 | 67 | 1017.5 |
| 20260507212704 | 62 | 29 | 0.0 | 2.0 | 0.00 | 0.00 | 0.00 | 69 | 1017.6 |
| 20260507211704 | 63 | 55 | 1.0 | 2.0 | 0.00 | 0.00 | 0.00 | 66 | 1017.6 |
| 20260507210204 | 60 | 293 | 0.0 | 2.0 | 0.00 | 0.00 | 0.00 | 73 | 1017.9 |
| 20260507204704 | 60 | 300 | 0.0 | 2.0 | 0.00 | 0.00 | 0.00 | 75 | 1018.1 |
| 20260507202704 | 59 | 253 | 1.0 | 1.0 | 0.00 | 0.00 | 0.00 | 76 | 1018.3 |
| 20260507200704 | 59 | 34 | 0.0 | 2.0 | 0.00 | 0.00 | 0.00 | 77 | 1018.5 |
| 20260507195204 | 58 | 27 | 0.0 | 1.0 | 0.00 | 0.00 | 0.00 | 76 | 1018.5 |
| 20260507194704 | 58 | 15 | 0.0 | 2.0 | 0.00 | 0.00 | 0.00 | 76 | 1018.5 |
| 20260507194204 | 58 | 15 | 0.0 | 2.0 | 0.00 | 0.00 | 0.00 | 76 | 1018.5 |
| 20260507192704 | 58 | 8 | 0.0 | 1.0 | 0.00 | 0.00 | 0.00 | 76 | 1018.5 |
| 20260507192204 | 58 | 8 | 0.0 | 2.0 | 0.00 | 0.00 | 0.00 | 75 | 1018.6 |
| 20260507190704 | 58 | 53 | 0.0 | 2.0 | 0.00 | 0.00 | 0.00 | 77 | 1018.6 |
| 20260507185704 | 58 | 104 | 0.0 | 1.0 | 0.00 | 0.00 | 0.00 | 78 | 1018.7 |
| 20260507185204 | 57 | 104 | 0.0 | 2.0 | 0.00 | 0.00 | 0.00 | 76 | 1018.7 |
| 20260507184704 | 57 | 111 | 0.0 | 2.0 | 0.00 | 0.00 | 0.00 | 76 | 1018.8 |
| 20260507184204 | 57 | 111 | 0.0 | 2.0 | 0.00 | 0.00 | 0.00 | 77 | 1018.8 |
| 20260507183704 | 57 | 111 | 0.0 | 2.0 | 0.00 | 0.00 | 0.00 | 76 | 1018.8 |
| 20260507181204 | 58 | 287 | 0.0 | 1.0 | 0.00 | 0.00 | 0.00 | 77 | 1018.9 |
| 20260507180204 | 58 | 214 | 0.0 | 2.0 | 0.00 | 0.00 | 0.00 | 76 | 1018.9 |
| 20260507174704 | 58 | 241 | 0.0 | 1.0 | 0.00 | 0.00 | 0.00 | 78 | 1018.9 |
| 20260507173704 | 57 | 171 | 0.0 | 1.0 | 0.00 | 0.00 | 0.00 | 81 | 1019.0 |
| 20260507172704 | 56 | 238 | 0.0 | 2.0 | 0.00 | 0.00 | 0.00 | 81 | 1018.9 |
| 20260507172204 | 56 | 81 | 0.0 | 3.0 | 0.00 | 0.00 | 0.00 | 81 | 1018.9 |
| 20260507171704 | 55 | 223 | 0.0 | 2.0 | 0.00 | 0.00 | 0.00 | 82 | 1019.0 |
| 20260507170703 | 55 | 11 | 0.0 | 2.0 | 0.00 | 0.00 | 0.00 | 84 | 1019.0 |
| 20260507170204 | 55 | 356 | 1.0 | 2.0 | 0.00 | 0.00 | 0.00 | 85 | 1018.9 |
| 20260507165704 | 54 | 152 | 0.0 | 2.0 | 0.00 | 0.00 | 0.00 | 85 | 1018.9 |
| 20260507163704 | 54 | 152 | 0.0 | 2.0 | 0.00 | 0.00 | 0.00 | 85 | 1019.1 |
| 20260507162204 | 53 | 152 | 0.0 | 0.0 | 0.00 | 0.00 | 0.00 | 87 | 1019.0 |
| 20260507160704 | 53 | 152 | 0.0 | 2.0 | 0.00 | 0.00 | 0.00 | 86 | 1019.1 |
| 20260507154704 | 54 | 152 | 0.0 | 2.0 | 0.00 | 0.00 | 0.00 | 85 | 1019.2 |
| 20260507154204 | 54 | 113 | 0.0 | 2.0 | 0.00 | 0.00 | 0.00 | 85 | 1019.2 |
| 20260507153705 | 54 | 94 | 0.0 | 1.0 | 0.00 | 0.00 | 0.00 | 85 | 1019.2 |
| 20260507152704 | 54 | 93 | 0.0 | 2.0 | 0.00 | 0.00 | 0.00 | 84 | 1019.2 |
| 20260507152203 | 54 | 93 | 0.0 | 0.0 | 0.00 | 0.00 | 0.00 | 84 | 1019.2 |
| 20260507151204 | 54 | 94 | 0.0 | 0.0 | 0.00 | 0.00 | 0.00 | 86 | 1019.2 |
| 20260507150704 | 54 | 94 | 0.0 | 0.0 | 0.00 | 0.00 | 0.00 | 87 | 1019.2 |
| 20260507150204 | 53 | 94 | 0.0 | 0.0 | 0.00 | 0.00 | 0.00 | 87 | 1019.2 |
| 20260507145704 | 53 | 94 | 0.0 | 0.0 | 0.00 | 0.00 | 0.00 | 88 | 1019.1 |
| 20260507145203 | 53 | 94 | 0.0 | 0.0 | 0.00 | 0.00 | 0.00 | 88 | 1019.2 |
| 20260507144204 | 53 | 94 | 0.0 | 2.0 | 0.00 | 0.00 | 0.00 | 88 | 1019.1 |
| 20260507143704 | 53 | 94 | 0.0 | 2.0 | 0.00 | 0.00 | 0.00 | 88 | 1019.1 |
| 20260507142204 | 52 | 94 | 0.0 | 0.0 | 0.00 | 0.00 | 0.00 | 89 | 1019.0 |
| 20260507135703 | 52 | 94 | 0.0 | 0.0 | 0.00 | 0.00 | 0.00 | 89 | 1019.0 |
| 20260507132204 | 52 | 94 | 0.0 | 0.0 | 0.00 | 0.00 | 0.00 | 90 | 1019.0 |
| 20260507131704 | 52 | 94 | 0.0 | 0.0 | 0.00 | 0.00 | 0.00 | 90 | 1019.0 |
| 20260507130704 | 52 | 94 | 0.0 | 0.0 | 0.00 | 0.00 | 0.00 | 90 | 1019.0 |
| 20260507130204 | 52 | 94 | 0.0 | 0.0 | 0.00 | 0.00 | 0.00 | 90 | 1019.0 |
| 20260507124704 | 52 | 94 | 0.0 | 0.0 | 0.00 | 0.00 | 0.00 | 89 | 1019.1 |
| 20260507124204 | 52 | 94 | 0.0 | 0.0 | 0.00 | 0.00 | 0.00 | 89 | 1019.1 |
| 20260507123704 | 52 | 94 | 0.0 | 0.0 | 0.00 | 0.00 | 0.00 | 89 | 1019.0 |
| 20260507123203 | 52 | 94 | 0.0 | 0.0 | 0.00 | 0.00 | 0.00 | 89 | 1019.0 |
| 20260507115704 | 52 | 94 | 0.0 | 0.0 | 0.00 | 0.00 | 0.00 | 89 | 1019.2 |
| 20260507115204 | 52 | 94 | 0.0 | 0.0 | 0.00 | 0.00 | 0.00 | 89 | 1019.2 |
| 20260507114704 | 52 | 94 | 0.0 | 0.0 | 0.00 | 0.00 | 0.00 | 89 | 1019.2 |
| 20260507114204 | 52 | 94 | 0.0 | 0.0 | 0.00 | 0.00 | 0.00 | 89 | 1019.3 |
| 20260507113704 | 52 | 94 | 0.0 | 0.0 | 0.00 | 0.00 | 0.00 | 89 | 1019.2 |
| 20260507113204 | 52 | 94 | 0.0 | 0.0 | 0.00 | 0.00 | 0.00 | 89 | 1019.3 |
| 20260507111204 | 52 | 94 | 0.0 | 2.0 | 0.00 | 0.00 | 0.00 | 89 | 1019.4 |
| 20260507105704 | 52 | 94 | 0.0 | 2.0 | 0.00 | 0.00 | 0.00 | 89 | 1019.4 |
| 20260507105204 | 52 | 94 | 0.0 | 0.0 | 0.00 | 0.00 | 0.00 | 90 | 1019.4 |
| 20260507104704 | 52 | 94 | 0.0 | 2.0 | 0.00 | 0.00 | 0.00 | 90 | 1019.3 |
| 20260507103204 | 52 | 93 | 0.0 | 2.0 | 0.00 | 0.00 | 0.00 | 90 | 1019.3 |
| 20260507101704 | 52 | 93 | 0.0 | 2.0 | 0.00 | 0.00 | 0.00 | 91 | 1019.4 |
| 20260507101204 | 52 | 93 | 0.0 | 2.0 | 0.00 | 0.00 | 0.00 | 91 | 1019.5 |
| 20260507100703 | 52 | 93 | 0.0 | 1.0 | 0.00 | 0.00 | 0.00 | 91 | 1019.5 |
| 20260507095204 | 52 | 93 | 0.0 | 2.0 | 0.00 | 0.00 | 0.00 | 91 | 1019.3 |
| 20260507093704 | 52 | 93 | 0.0 | 2.0 | 0.00 | 0.00 | 0.00 | 91 | 1019.5 |
| 20260507092704 | 52 | 93 | 0.0 | 1.0 | 0.00 | 0.00 | 0.00 | 91 | 1019.5 |
| 20260507092204 | 52 | 93 | 0.0 | 2.0 | 0.00 | 0.00 | 0.00 | 91 | 1019.5 |
| 20260507090704 | 53 | 93 | 0.0 | 0.0 | 0.00 | 0.00 | 0.00 | 91 | 1019.4 |
| 20260507090204 | 53 | 93 | 0.0 | 0.0 | 0.00 | 0.00 | 0.00 | 91 | 1019.5 |
| 20260507085204 | 53 | 93 | 0.0 | 0.0 | 0.00 | 0.00 | 0.00 | 91 | 1019.6 |
| 20260507082704 | 53 | 93 | 0.0 | 0.0 | 0.00 | 0.00 | 0.00 | 91 | 1019.5 |
| 20260507081704 | 53 | 93 | 0.0 | 0.0 | 0.00 | 0.00 | 0.00 | 91 | 1019.4 |
| 20260507080704 | 53 | 93 | 0.0 | 1.0 | 0.00 | 0.00 | 0.00 | 91 | 1019.3 |
| 20260507075704 | 53 | 94 | 0.0 | 2.0 | 0.00 | 0.00 | 0.00 | 91 | 1019.3 |
| 20260507074704 | 53 | 94 | 0.0 | 1.0 | 0.00 | 0.00 | 0.00 | 91 | 1019.3 |
| 20260507073204 | 53 | 134 | 0.0 | 2.0 | 0.00 | 0.00 | 0.00 | 91 | 1019.3 |
| 20260507072704 | 53 | 134 | 0.0 | 2.0 | 0.00 | 0.00 | 0.00 | 91 | 1019.1 |
| 20260507072204 | 53 | 134 | 0.0 | 2.0 | 0.00 | 0.00 | 0.00 | 91 | 1019.2 |
| 20260507071703 | 53 | 134 | 0.0 | 2.0 | 0.00 | 0.00 | 0.00 | 90 | 1019.2 |
| 20260507071204 | 53 | 134 | 0.0 | 2.0 | 0.00 | 0.00 | 0.00 | 90 | 1019.2 |
| 20260507070204 | 53 | 134 | 0.0 | 0.0 | 0.00 | 0.00 | 0.00 | 90 | 1019.2 |
| 20260507065704 | 53 | 134 | 0.0 | 2.0 | 0.00 | 0.00 | 0.00 | 90 | 1019.2 |
| 20260507065204 | 53 | 134 | 0.0 | 1.0 | 0.00 | 0.00 | 0.00 | 90 | 1019.2 |
| 20260507064704 | 53 | 134 | 0.0 | 2.0 | 0.00 | 0.00 | 0.00 | 90 | 1019.1 |
| 20260507064204 | 53 | 134 | 0.0 | 1.0 | 0.00 | 0.00 | 0.00 | 90 | 1019.2 |
| 20260507063204 | 54 | 134 | 0.0 | 2.0 | 0.00 | 0.00 | 0.00 | 89 | 1019.1 |
| 20260507062203 | 54 | 134 | 0.0 | 2.0 | 0.00 | 0.00 | 0.00 | 89 | 1019.1 |
| 20260507054703 | 54 | 134 | 0.0 | 0.0 | 0.00 | 0.00 | 0.00 | 89 | 1019.2 |
| 20260507054204 | 54 | 134 | 0.0 | 0.0 | 0.00 | 0.00 | 0.00 | 88 | 1019.2 |
| 20260507053704 | 54 | 134 | 0.0 | 0.0 | 0.00 | 0.00 | 0.00 | 88 | 1019.2 |
| 20260507053204 | 55 | 134 | 0.0 | 0.0 | 0.00 | 0.00 | 0.00 | 88 | 1019.2 |
| 20260507052204 | 55 | 134 | 0.0 | 0.0 | 0.00 | 0.00 | 0.00 | 88 | 1019.3 |
| 20260507045704 | 55 | 134 | 0.0 | 2.0 | 0.00 | 0.00 | 0.00 | 88 | 1019.3 |
| 20260507045204 | 55 | 134 | 0.0 | 1.0 | 0.00 | 0.00 | 0.00 | 88 | 1019.2 |
| 20260507044204 | 55 | 134 | 0.0 | 0.0 | 0.00 | 0.00 | 0.00 | 87 | 1019.2 |
| 20260507043704 | 55 | 134 | 0.0 | 2.0 | 0.00 | 0.00 | 0.00 | 87 | 1019.2 |
| 20260507043204 | 55 | 134 | 0.0 | 0.0 | 0.00 | 0.00 | 0.00 | 87 | 1019.2 |
| 20260507042704 | 55 | 134 | 0.0 | 1.0 | 0.00 | 0.00 | 0.00 | 87 | 1019.2 |
| 20260507042204 | 55 | 134 | 0.0 | 2.0 | 0.00 | 0.00 | 0.00 | 87 | 1019.2 |
| 20260507040204 | 55 | 134 | 0.0 | 2.0 | 0.00 | 0.00 | 0.00 | 87 | 1019.1 |
| 20260507035204 | 55 | 134 | 0.0 | 2.0 | 0.00 | 0.00 | 0.00 | 86 | 1019.1 |
| 20260507034703 | 55 | 134 | 0.0 | 2.0 | 0.00 | 0.00 | 0.00 | 86 | 1019.1 |
| 20260507033704 | 55 | 134 | 0.0 | 2.0 | 0.00 | 0.00 | 0.00 | 86 | 1019.0 |
| 20260507031204 | 55 | 85 | 0.0 | 1.0 | 0.00 | 0.00 | 0.00 | 86 | 1018.9 |
| 20260507030204 | 55 | 85 | 0.0 | 0.0 | 0.00 | 0.00 | 0.00 | 86 | 1018.9 |
| 20260507025704 | 56 | 85 | 0.0 | 0.0 | 0.00 | 0.00 | 0.00 | 85 | 1018.8 |
| 20260507025204 | 56 | 85 | 0.0 | 0.0 | 0.00 | 0.00 | 0.00 | 85 | 1018.8 |
| 20260507023704 | 56 | 85 | 0.0 | 1.0 | 0.00 | 0.00 | 0.00 | 85 | 1018.8 |
| 20260507023204 | 56 | 85 | 0.0 | 0.0 | 0.00 | 0.00 | 0.00 | 85 | 1018.7 |
| 20260507021203 | 56 | 85 | 0.0 | 2.0 | 0.00 | 0.00 | 0.00 | 85 | 1018.7 |
| 20260507020204 | 56 | 85 | 0.0 | 0.0 | 0.00 | 0.00 | 0.00 | 85 | 1018.7 |
| 20260507015704 | 56 | 85 | 0.0 | 0.0 | 0.00 | 0.00 | 0.00 | 84 | 1018.6 |
| 20260507015204 | 56 | 85 | 0.0 | 0.0 | 0.00 | 0.00 | 0.00 | 84 | 1018.6 |
| 20260507012703 | 56 | 85 | 0.0 | 2.0 | 0.00 | 0.00 | 0.00 | 83 | 1018.7 |
| 20260507012204 | 56 | 85 | 0.0 | 2.0 | 0.00 | 0.00 | 0.00 | 83 | 1018.7 |
| 20260507011203 | 56 | 85 | 0.0 | 2.0 | 0.00 | 0.00 | 0.00 | 83 | 1018.8 |
| 20260507010703 | 56 | 85 | 0.0 | 1.0 | 0.00 | 0.00 | 0.00 | 82 | 1018.7 |
| 20260507010204 | 56 | 85 | 0.0 | 2.0 | 0.00 | 0.00 | 0.00 | 82 | 1018.7 |
| 20260507005204 | 57 | 85 | 0.0 | 2.0 | 0.00 | 0.00 | 0.00 | 81 | 1018.7 |
| 20260507003704 | 57 | 85 | 0.0 | 2.0 | 0.00 | 0.00 | 0.00 | 81 | 1018.8 |
| 20260507002703 | 57 | 138 | 0.0 | 2.0 | 0.00 | 0.00 | 0.00 | 82 | 1018.7 |
| 20260507002203 | 57 | 150 | 0.0 | 2.0 | 0.00 | 0.00 | 0.00 | 82 | 1018.7 |
| 20260507001204 | 57 | 150 | 0.0 | 2.0 | 0.00 | 0.00 | 0.00 | 81 | 1018.7 |
| 20260506234204 | 57 | 163 | 0.0 | 1.0 | 0.00 | 0.00 | 0.00 | 80 | 1018.7 |
| 20260506233705 | 57 | 163 | 0.0 | 2.0 | 0.00 | 0.00 | 0.00 | 80 | 1018.7 |
| 20260506233205 | 57 | 163 | 0.0 | 2.0 | 0.00 | 0.00 | 0.00 | 81 | 1018.8 |
| 20260506232705 | 57 | 163 | 0.0 | 2.0 | 0.00 | 0.00 | 0.00 | 80 | 1018.8 |
| 20260506230705 | 58 | 163 | 0.0 | 2.0 | 0.00 | 0.00 | 0.00 | 78 | 1018.8 |
| 20260506225705 | 58 | 163 | 0.0 | 2.0 | 0.00 | 0.00 | 0.00 | 79 | 1018.8 |
| 20260506224704 | 58 | 163 | 0.0 | 2.0 | 0.00 | 0.00 | 0.00 | 78 | 1018.9 |
| 20260506224205 | 58 | 163 | 0.0 | 2.0 | 0.00 | 0.00 | 0.00 | 77 | 1018.9 |
| 20260506223705 | 58 | 163 | 0.0 | 0.0 | 0.00 | 0.00 | 0.00 | 77 | 1018.9 |